Location: Township of Marena
(38.1747°N, 99.6798°W)
Time: 03:11:30
(UTC+00:00)

OAO 3 Rocket - Pass Details

Date: 26 October 2020
Orbit: 629 x 682 km, 35.0° (Epoch: 24 November)

Event Time Altitude Azimuth Distance (km) Brightness Sun altitude
Rises 00:50:52 0° 270° (W) 2,974 8.6 -13.2°
Reaches altitude 10° 00:53:17 10° 265° (W) 2,053 7.2 -13.7°
Maximum altitude 00:57:56 52° 190° (S) 801 3.7 -14.6°
Enters shadow 01:01:02 19° 120° (ESE) 1,495 4.5 -15.2°
